Home   Weather   Gronau (Westfalen)   Past weeks

Flag for Germany Past Weather in Gronau (Westfalen), North Rhine-Westphalia, Germany — Yesterday and Last 2 Weeks

Now
45 °F

Passing clouds.


Feels Like: 43 °F
Forecast: 34 / 51 °F
Wind: 3 mph from Northwest

Location: Twenthe

Current Time: Apr 28, 2017 at 10:29:45 pm

Latest Report: Apr 28, 2017 at 9:00 pm


Visibility: 28 mi

Pressure: 29.98 "Hg

Humidity: 71%

Dew Point: 36 °F

Location of Gronau (Westfalen)Location

Past Weather in Gronau (Westfalen) — Graph

°F

Gronau (Westfalen) Temperature Yesterday

Maximum temperature yesterday: 50 °F (at 1:00 pm)
Minimum temperature yesterday: 28 °F (at 5:00 am)
Average temperature yesterday: 40 °F

High & Low Weather Summary for the Past Weeks

 TemperatureHumidityPressure
High57 °F (Apr 21, 2:00 pm)100% (Apr 20, 7:00 am)30.65 "Hg (Apr 20, 7:00 am)
Low25 °F (Apr 20, 6:00 am)35% (Apr 20, 4:00 pm)29.66 "Hg (Apr 25, 5:00 am)
Average43 °F74%30.15 "Hg
* Reported Apr 13 8:00 pm — Apr 28 8:00 pm, Gronau (Westfalen), Weather by CustomWeather, © 2017

Note: Actual official high and low records may vary slightly from our data, if they occured in-between our weather recording intervals... More about our weather records

Advertising

Gronau (Westfalen) Weather History for the Previous 24 Hours

Scroll right to see more
 ConditionsComfort  
Time TempWeatherWind HumidityBarometerVisibility
8:00 pm
Fri, Apr 28
48 °FScattered clouds.3 mph63%29.96 "Hg28 mi
7:00 pm51 °FOvercast.5 mph64%29.95 "Hg28 mi
6:00 pm50 °FOvercast.5 mph58%29.94 "Hg28 mi
5:00 pm53 °FOvercast.5 mph66%29.92 "Hg25 mi
4:00 pm49 °FRain showers. Overcast.2 mph76%29.92 "Hg12 mi
2:00 pm45 °FRain showers. Overcast.2 mph88%29.92 "Hg12 mi
1:00 pm49 °FOvercast.6 mph71%29.92 "Hg17 mi
12:00 pm47 °FOvercast.3 mph78%29.93 "Hg7 mi
11:00 am46 °FOvercast.5 mph83%29.93 "Hg6 mi
10:00 am46 °FOvercast.5 mph84%29.92 "Hg6 mi
9:00 am45 °FFog.3 mph84%29.92 "Hg5 mi
8:00 am42 °FOvercast.2 mph89%29.92 "Hg4 mi
7:00 am40 °FOvercast.3 mph89%29.92 "Hg4 mi
6:00 am39 °FDrizzle. Overcast.3 mph88%29.93 "Hg6 mi
5:00 am40 °FOvercast.3 mph80%29.93 "Hg12 mi
4:00 am39 °FDrizzle. Overcast.5 mph80%29.94 "Hg11 mi
3:00 am38 °FPassing clouds.5 mph81%29.95 "Hg12 mi
2:00 am36 °FClear.3 mph82%29.96 "Hg16 mi
1:00 am33 °FClear.2 mph84%29.96 "Hg22 mi
12:00 am36 °FClear.2 mph85%29.97 "Hg22 mi
11:00 pm
Thu, Apr 27
37 °FClear.2 mph83%29.98 "Hg25 mi
10:00 pm40 °FClear.1 mph78%29.98 "Hg28 mi
Weather by CustomWeather, © 2017

See weather overviewHow to use our weather pages